| time (UTC) | temp F | wind direction | speed MPH | gust MPH | rain 1hr in | rain 24hr in | rain mn in | humidity % | barometer mb |
| 20260505223041 | 42 | 10 | 13.0 | 32.0 | 0.00 | 0.02 | 0.01 | 56 | 1014.9 |
| 20260505221537 | 45 | 346 | 17.0 | 28.0 | 0.00 | 0.02 | 0.01 | 47 | 1014.7 |
| 20260505220036 | 44 | 5 | 18.0 | 24.0 | 0.00 | 0.02 | 0.01 | 48 | 1014.4 |
| 20260505214538 | 46 | 9 | 19.0 | 27.0 | 0.00 | 0.02 | 0.01 | 43 | 1014.3 |
| 20260505213034 | 45 | 5 | 19.0 | 27.0 | 0.00 | 0.02 | 0.01 | 43 | 1014.5 |
| 20260505211535 | 45 | 345 | 13.0 | 25.0 | 0.00 | 0.02 | 0.01 | 42 | 1014.5 |
| 20260505210038 | 46 | 341 | 16.0 | 29.0 | 0.00 | 0.02 | 0.01 | 41 | 1014.4 |
| 20260505204635 | 45 | 340 | 13.0 | 26.0 | 0.00 | 0.02 | 0.01 | 42 | 1014.7 |
| 20260505203038 | 45 | 350 | 9.0 | 25.0 | 0.00 | 0.02 | 0.01 | 44 | 1014.6 |
| 20260505201547 | 46 | 344 | 14.0 | 30.0 | 0.00 | 0.02 | 0.01 | 42 | 1014.5 |
| 20260505200034 | 45 | 5 | 19.0 | 30.0 | 0.00 | 0.02 | 0.01 | 42 | 1014.4 |
| 20260505194535 | 45 | 355 | 18.0 | 29.0 | 0.00 | 0.02 | 0.01 | 41 | 1014.5 |
| 20260505193030 | 47 | 337 | 6.0 | 26.0 | 0.00 | 0.02 | 0.01 | 38 | 1014.5 |
| 20260505191532 | 47 | 5 | 16.0 | 25.0 | 0.00 | 0.02 | 0.01 | 40 | 1014.3 |
| 20260505190035 | 46 | 334 | 12.0 | 24.0 | 0.00 | 0.02 | 0.01 | 36 | 1014.4 |
| 20260505184528 | 45 | 345 | 15.0 | 28.0 | 0.00 | 0.02 | 0.01 | 40 | 1014.6 |
| 20260505183031 | 45 | 13 | 14.0 | 26.0 | 0.00 | 0.02 | 0.01 | 42 | 1014.6 |
| 20260505181532 | 46 | 360 | 16.0 | 26.0 | 0.00 | 0.02 | 0.01 | 43 | 1014.6 |
| 20260505180025 | 44 | 355 | 19.0 | 27.0 | 0.00 | 0.02 | 0.01 | 41 | 1014.8 |
| 20260505174525 | 44 | 360 | 17.0 | 27.0 | 0.00 | 0.02 | 0.01 | 40 | 1014.9 |
| 20260505173036 | 45 | 338 | 16.0 | 27.0 | 0.00 | 0.02 | 0.01 | 41 | 1014.8 |
| 20260505171533 | 46 | 319 | 20.0 | 31.0 | 0.00 | 0.02 | 0.01 | 37 | 1014.8 |
| 20260505170019 | 45 | 341 | 21.0 | 28.0 | 0.00 | 0.02 | 0.01 | 37 | 1015.0 |
| 20260505164515 | 44 | 360 | 18.0 | 29.0 | 0.00 | 0.02 | 0.01 | 40 | 1015.0 |
| 20260505163010 | 43 | 325 | 13.0 | 26.0 | 0.00 | 0.02 | 0.01 | 42 | 1015.0 |
| 20260505161507 | 43 | 344 | 12.0 | 26.0 | 0.00 | 0.02 | 0.01 | 41 | 1015.1 |
| 20260505153003 | 41 | 327 | 16.0 | 23.0 | 0.00 | 0.02 | 0.01 | 44 | 1015.3 |
| 20260505151501 | 40 | 360 | 13.0 | 24.0 | 0.01 | 0.02 | 0.01 | 50 | 1015.3 |
| 20260505124539 | 35 | 351 | 0.0 | 0.0 | 0.00 | 0.01 | 0.00 | 66 | 1014.2 |
| 20260505123046 | 35 | 351 | 0.0 | 2.0 | 0.00 | 0.01 | 0.00 | 66 | 1013.9 |
| 20260505121545 | 35 | 351 | 0.0 | 0.0 | 0.00 | 0.01 | 0.00 | 67 | 1013.6 |
| 20260505120101 | 34 | 351 | 0.0 | 0.0 | 0.00 | 0.01 | 0.00 | 68 | 1013.4 |
| 20260505114541 | 34 | 350 | 0.0 | 0.0 | 0.00 | 0.01 | 0.00 | 70 | 1013.2 |
| 20260505113044 | 34 | 9 | 0.0 | 0.0 | 0.00 | 0.01 | 0.00 | 71 | 1013.1 |
| 20260505111536 | 35 | 9 | 0.0 | 1.0 | 0.00 | 0.01 | 0.00 | 72 | 1012.9 |
| 20260505101531 | 36 | 13 | 0.0 | 0.0 | 0.00 | 0.01 | 0.00 | 78 | 1012.8 |
| 20260505100029 | 35 | 14 | 0.0 | 0.0 | 0.00 | 0.01 | 0.00 | 77 | 1012.7 |
| 20260505094527 | 36 | 14 | 0.0 | 0.0 | 0.00 | 0.01 | 0.00 | 76 | 1012.5 |
| 20260505093026 | 36 | 14 | 0.0 | 0.0 | 0.00 | 0.01 | 0.00 | 75 | 1012.6 |
| 20260505091528 | 37 | 14 | 0.0 | 0.0 | 0.00 | 0.01 | 0.00 | 72 | 1012.8 |
| 20260505090037 | 37 | 14 | 0.0 | 0.0 | 0.00 | 0.01 | 0.00 | 70 | 1012.5 |
| 20260505084521 | 37 | 14 | 0.0 | 0.0 | 0.00 | 0.01 | 0.00 | 72 | 1012.6 |
| 20260505083019 | 37 | 14 | 0.0 | 0.0 | 0.00 | 0.01 | 0.00 | 74 | 1012.4 |
| 20260505081518 | 37 | 14 | 0.0 | 0.0 | 0.00 | 0.01 | 0.00 | 74 | 1012.4 |
| 20260505080015 | 38 | 14 | 0.0 | 0.0 | 0.00 | 0.01 | 0.00 | 71 | 1012.4 |
| 20260505074513 | 38 | 14 | 0.0 | 0.0 | 0.00 | 0.01 | 0.00 | 72 | 1012.3 |
| 20260505073022 | 39 | 14 | 0.0 | 0.0 | 0.00 | 0.01 | 0.00 | 71 | 1012.3 |
| 20260505071516 | 39 | 15 | 0.0 | 0.0 | 0.00 | 0.01 | 0.00 | 70 | 1012.4 |
| 20260505070005 | 41 | 15 | 0.0 | 12.0 | 0.00 | 0.01 | 0.00 | 65 | 1012.3 |
| 20260505064508 | 41 | 9 | 0.0 | 4.0 | 0.00 | 0.01 | 0.00 | 69 | 1012.2 |
| 20260505063002 | 41 | 355 | 0.0 | 10.0 | 0.00 | 0.01 | 0.00 | 70 | 1012.2 |
| 20260505061604 | 41 | 355 | 0.0 | 4.0 | 0.00 | 0.01 | 0.00 | 76 | 1012.1 |
| 20260505060056 | 42 | 340 | 0.0 | 8.0 | 0.00 | 0.01 | 0.00 | 78 | 1011.8 |
| 20260505054620 | 42 | 317 | 0.0 | 3.0 | 0.01 | 0.01 | 0.01 | 77 | 1011.5 |
| 20260505053102 | 42 | 296 | 2.0 | 10.0 | 0.01 | 0.01 | 0.01 | 76 | 1011.4 |
| 20260505051550 | 42 | 302 | 0.0 | 13.0 | 0.01 | 0.01 | 0.01 | 76 | 1011.3 |
| 20260505041540 | 46 | 348 | 0.0 | 0.0 | 0.00 | 0.00 | 0.00 | 58 | 1010.4 |
| 20260505040038 | 46 | 348 | 0.0 | 0.0 | 0.00 | 0.00 | 0.00 | 55 | 1010.2 |
| 20260505034537 | 47 | 343 | 0.0 | 0.0 | 0.00 | 0.00 | 0.00 | 54 | 1010.2 |
| 20260505033037 | 47 | 348 | 0.0 | 0.0 | 0.00 | 0.00 | 0.00 | 52 | 1010.1 |
| 20260505031543 | 47 | 333 | 0.0 | 0.0 | 0.00 | 0.00 | 0.00 | 51 | 1010.0 |
| 20260505030033 | 47 | 327 | 0.0 | 13.0 | 0.00 | 0.00 | 0.00 | 50 | 1009.9 |
| 20260505024538 | 47 | 313 | 2.0 | 9.0 | 0.00 | 0.00 | 0.00 | 50 | 1009.8 |
| 20260505023030 | 48 | 320 | 0.0 | 5.0 | 0.00 | 0.00 | 0.00 | 49 | 1009.6 |
| 20260505021528 | 48 | 321 | 2.0 | 13.0 | 0.00 | 0.00 | 0.00 | 48 | 1009.3 |
| 20260505020031 | 48 | 348 | 2.0 | 14.0 | 0.00 | 0.00 | 0.00 | 47 | 1009.1 |
| 20260505014529 | 49 | 323 | 11.0 | 22.0 | 0.00 | 0.00 | 0.00 | 46 | 1009.0 |
| 20260505013024 | 50 | 318 | 2.0 | 18.0 | 0.00 | 0.00 | 0.00 | 46 | 1008.9 |
| 20260505011530 | 50 | 340 | 6.0 | 16.0 | 0.00 | 0.00 | 0.00 | 46 | 1008.7 |
| 20260505010020 | 50 | 333 | 6.0 | 18.0 | 0.00 | 0.00 | 0.00 | 45 | 1008.7 |
| 20260505004537 | 50 | 350 | 10.0 | 19.0 | 0.00 | 0.00 | 0.00 | 43 | 1008.5 |
| 20260505003018 | 50 | 331 | 14.0 | 20.0 | 0.00 | 0.00 | 0.00 | 42 | 1008.4 |
| 20260505001519 | 51 | 355 | 7.0 | 18.0 | 0.00 | 0.00 | 0.00 | 45 | 1008.4 |
| 20260505000034 | 51 | 355 | 6.0 | 22.0 | 0.00 | 0.00 | 0.00 | 44 | 1008.3 |
| 20260504234515 | 52 | 337 | 10.0 | 22.0 | 0.00 | 0.01 | 0.00 | 43 | 1008.4 |
| 20260504233015 | 51 | 336 | 15.0 | 21.0 | 0.00 | 0.01 | 0.00 | 42 | 1008.3 |
| 20260504231514 | 51 | 348 | 4.0 | 20.0 | 0.00 | 0.01 | 0.00 | 44 | 1008.3 |
| 20260504230014 | 51 | 321 | 9.0 | 21.0 | 0.00 | 0.01 | 0.00 | 45 | 1008.3 |
| 20260504224512 | 51 | 325 | 13.0 | 24.0 | 0.00 | 0.01 | 0.00 | 44 | 1008.2 |